This is the latest recevied weather packets stored in our database for station/object N7CEE. If no packets are shown the sender has not sent any weather packets the latest 1 day(s).
| Time | Temp. | Humidity | Pressure | Rain* | Wind** | Luminosity | Snow |
|---|---|---|---|---|---|---|---|
| 1778030770 | 3.33° C | 94% | 1018.8 hPa | 0 mm | 0 m/s | 28 W/m² | - |
| 1778030466 | 3.33° C | 94% | 1018.8 hPa | 0 mm | 0 m/s | 30 W/m² | - |
| 1778030164 | 3.33° C | 94% | 1018.9 hPa | 0 mm | 0 m/s | 29 W/m² | - |
| 1778029860 | 3.33° C | 94% | 1019 hPa | 0 mm | 0 m/s | 30 W/m² | - |
| 1778029554 | 3.33° C | 94% | 1018.7 hPa | 0 mm | 0 m/s | 34 W/m² | - |
| 1778029250 | 3.33° C | 94% | 1018.7 hPa | 0 mm | 0 m/s | 37 W/m² | - |
| 1778028947 | 3.33° C | 93% | 1018.9 hPa | 0 mm | 0 m/s | 39 W/m² | - |
| 1778028643 | 2.78° C | 93% | 1018.9 hPa | 0 mm | 0 m/s | 38 W/m² | - |
| 1778028341 | 2.78° C | 93% | 1018.9 hPa | 0 mm | 0 m/s | 39 W/m² | - |
| 1778028047 | 3.33° C | 93% | 1019 hPa | 0 mm | 0 m/s | 31 W/m² | - |
| 1778027734 | 3.33° C | 93% | 1019.2 hPa | 0 mm | 0 m/s | 32 W/m² | - |
| 1778027430 | 3.33° C | 92% | 1018.9 hPa | 0 mm | 0 m/s | 31 W/m² | - |
| 1778027126 | 3.33° C | 91% | 1019.2 hPa | 0 mm | 0 m/s | 27 W/m² | - |
| 1778026822 | 3.33° C | 91% | 1018.9 hPa | 1.78 mm | 0 m/s | 43 W/m² | - |
| 1778026518 | 3.33° C | 91% | 1018.9 hPa | 0 mm | 0 m/s | 53 W/m² | - |
| 1778026216 | 3.33° C | 91% | 1018.7 hPa | 0 mm | 0 m/s | 31 W/m² | - |
| 1778025913 | 3.33° C | 91% | 1018.9 hPa | 0 mm | 0 m/s | 55 W/m² | - |
| 1778025611 | 3.33° C | 91% | 1018.8 hPa | 1.27 mm | 0 m/s | 66 W/m² | - |
| 1778025308 | 3.33° C | 92% | 1018.8 hPa | 1.78 mm | 0 m/s | 50 W/m² | - |
| 1778025004 | 3.33° C | 93% | 1018.8 hPa | 0 mm | 0 m/s | 26 W/m² | - |
| 1778024702 | 3.33° C | 93% | 1018.6 hPa | 0 mm | 0 m/s | 27 W/m² | - |
| 1778024399 | 3.33° C | 92% | 1018.6 hPa | 0 mm | 0 m/s | 34 W/m² | - |
| 1778024096 | 3.33° C | 94% | 1018.6 hPa | 0 mm | 0.45 m/s, 230° | 33 W/m² | - |
| 1778023793 | 3.33° C | 94% | 1018.4 hPa | 0 mm | 0.45 m/s, 174° | 42 W/m² | - |
| 1778023491 | 3.33° C | 93% | 1018.4 hPa | 0 mm | 0 m/s | 42 W/m² | - |
* Rain latest hour (hover to see other rain measurements)
** Current wind speed in m/s (hover to see current wind gust speed)